Location: Melizzano
(41.1500°N, 14.5000°E)
Time: 04:33:27
(UTC+00:00)

CZ-4C R/B - Pass Details

Date: 11 May 2021
Orbit: 609 x 1392 km, 63.4° (Epoch: 14 June)

Event Time Altitude Azimuth Distance (km) Brightness Sun altitude
Rises 20:30:09 0° 324° (NW) 3,897 7.2 -21.5°
Reaches altitude 10° 20:32:39 10° 323° (NW) 3,039 6.2 -21.8°
Maximum altitude 20:40:08 81° 238° (WSW) 1,300 3.0 -22.6°
Enters shadow 20:43:47 38° 156° (SSE) 1,915 3.5 -23.0°
